This demonstration page uses our WeatherBlox Daily Observations layout. Learn more.

Left ArrowRight Arrow

39.51506, -84.39828

Hourly Observations for April 19, 2020

Temp ( °F °C ) Dew Point ( °F °C ) Humidity (%) Winds ( mph kmh ) Pressure ( in mb ) Visibility ( mi km ) Precip ( " mm )
12:15 am 00:15 Clear 42 5.3 34 0.9 74 74 SW 5 7 29.97 1015 N/A 0 0
12:35 am 00:35 Clear 42 5.3 34 0.9 74 74 SSW 6 9 29.97 1015 N/A 0 0
12:55 am 00:55 Clear 43 5.9 34 0.9 71 71 S 5 7 29.97 1015 N/A 0 0
1:15 am 01:15 Clear 42 5.3 32 0 69 69 S 6 9 29.96 1015 N/A 0 0
1:35 am 01:35 Clear 39 4 33 0.5 78 78 S 5 7 29.96 1015 N/A 0 0
1:55 am 01:55 Clear 39 3.9 34 1.2 83 83 SSW 3 6 29.95 1014 N/A 0 0
2:15 am 02:15 undefined 37 3 35 1.5 90 90 WSW 3 6 29.96 1014 N/A 0 0
2:35 am 02:35 undefined 34 1.2 33 0.5 95 95 SW 5 7 29.96 1015 N/A 0 0
2:55 am 02:55 undefined 36 2.3 35 1.6 95 95 SW 3 6 29.96 1015 N/A 0 0
3:15 am 03:15 undefined 35 1.5 33 0.8 95 95 Calm 29.95 1014 N/A 0 0
3:35 am 03:35 undefined 35 1.9 35 1.5 97 97 Calm 29.95 1014 N/A 0 0
3:55 am 03:55 undefined 34 1.3 34 1 98 98 Calm 29.94 1014 N/A 0 0
4:15 am 04:15 undefined 35 1.6 35 1.4 99 99 Calm 29.94 1014 N/A 0 0
4:35 am 04:35 undefined 33 0.4 32 0.1 98 98 Calm 29.94 1014 N/A 0 0
4:55 am 04:55 undefined 33 0.7 32 0.2 97 97 SW 6 9 29.95 1014 N/A 0 0
5:15 am 05:15 undefined 34 1.1 32 0.1 93 93 SSW 3 6 29.95 1014 N/A 0 0
5:35 am 05:35 undefined 35 1.4 33 0.3 92 92 Calm 29.94 1014 N/A 0 0
5:55 am 05:55 undefined 31 -0.4 31 -0.7 98 98 Calm 29.95 1014 N/A 0 0
6:15 am 06:15 undefined 32 0.2 32 -0.1 98 98 SW 3 6 29.94 1014 N/A 0 0
6:35 am 06:35 undefined 32 0 32 -0.2 99 99 SW 6 9 29.95 1014 N/A 0 0
6:55 am 06:55 undefined 34 1.1 33 0.6 97 97 SSW 6 9 29.93 1014 N/A 0 0
7:15 am 07:15 undefined 35 1.5 33 0.5 93 93 SW 5 7 29.93 1014 N/A 0 0
7:35 am 07:35 undefined 36 2.2 34 1.2 93 93 WSW 3 6 29.93 1014 N/A 0 0
7:55 am 07:55 undefined 37 2.5 35 1.6 94 94 Calm 29.93 1013 N/A 0 0
8:15 am 08:15 Mostly Cloudy 39 3.8 37 2.6 92 92 WSW 3 6 29.92 1013 N/A 0 0
8:35 am 08:35 Mostly Cloudy 42 5.4 37 2.8 84 84 S 3 6 29.93 1014 N/A 0 0
8:55 am 08:55 Mostly Cloudy 43 5.9 37 2.6 80 80 SSW 6 9 29.92 1013 N/A 0 0
9:15 am 09:15 Cloudy 43 6 37 2.7 80 80 S 7 11 29.92 1013 N/A 0 0
9:35 am 09:35 Partly Cloudy 44 6.6 37 3 78 78 SW 6 9 29.92 1013 N/A 0 0
9:55 am 09:55 Partly Cloudy 45 7.1 38 3.2 76 76 SSW 7 11 29.91 1013 N/A 0 0
10:15 am 10:15 Partly Cloudy 47 8.1 39 3.8 75 75 SSW 6 9 29.89 1012 N/A 0 0
10:35 am 10:35 Partly Cloudy 48 8.9 39 3.7 70 70 SSW 7 11 29.88 1012 N/A 0 0
10:55 am 10:55 Mostly Cloudy 49 9.4 38 3.3 66 66 SSW 10 17 29.88 1012 N/A 0 0
11:15 am 11:15 Partly Cloudy 51 10.5 39 3.7 63 63 S 12 19 29.89 1012 N/A 0 0
11:35 am 11:35 Mostly Cloudy 52 11.1 39 4 62 62 SSW 10 17 29.89 1012 N/A 0 0
11:55 am 11:55 Sunny 53 11.9 39 4 59 59 SW 12 19 29.87 1012 N/A 0 0
12:15 pm 12:15 Sunny 54 12.3 38 3.5 55 55 SSW 12 19 29.87 1012 N/A 0 0
12:35 pm 12:35 Mostly Cloudy 54 12.3 38 3.1 54 54 WSW 10 17 29.86 1011 N/A 0 0
12:55 pm 12:55 Mostly Cloudy 55 12.5 38 3.1 53 53 SW 14 22 29.85 1011 N/A 0 0
1:15 pm 13:15 Mostly Cloudy 55 12.7 38 3.3 53 53 SW 12 19 29.84 1011 N/A 0 0
1:35 pm 13:35 Cloudy 54 12.4 38 3.3 54 54 SSW 5 7 29.81 1010 N/A 0 0
1:55 pm 13:55 Cloudy 55 12.5 39 3.8 56 56 SSW 9 15 29.81 1010 N/A 0 0
2:15 pm 14:15 Cloudy 55 12.6 39 3.7 55 55 SSW 8 13 29.81 1010 N/A 0 0
2:35 pm 14:35 Cloudy 56 13.1 39 3.8 54 54 SW 8 13 29.8 1009 N/A 0 0
2:55 pm 14:55 Cloudy 56 13.1 40 4.2 55 55 SW 9 15 29.8 1009 N/A 0 0
3:15 pm 15:15 Cloudy 56 13.1 39 3.8 54 54 SW 10 17 29.8 1009 N/A 0 0
3:35 pm 15:35 Cloudy 55 12.5 42 5.3 62 62 SSW 13 20 29.79 1009 N/A 0 0
3:55 pm 15:55 Cloudy 55 12.7 42 5.8 63 63 WSW 9 15 29.79 1009 N/A 0 0
4:15 pm 16:15 Cloudy 57 13.7 43 5.9 60 60 SW 8 13 29.78 1008 N/A 0 0
4:35 pm 16:35 Partly Cloudy 58 14.4 42 5.8 57 57 SW 14 22 29.8 1009 N/A 0 0
4:55 pm 16:55 Mostly Cloudy 57 13.8 42 5.4 57 57 SW 9 15 29.78 1008 N/A 0 0
5:15 pm 17:15 Mostly Cloudy 58 14.3 42 5.7 57 57 SW 9 15 29.78 1008 N/A 0 0
5:35 pm 17:35 Partly Cloudy 56 13.5 41 4.9 56 56 SSW 13 20 29.79 1009 N/A 0 0
5:55 pm 17:55 Cloudy 56 13.2 41 5.2 59 59 SSW 12 19 29.8 1009 N/A 0 0
6:15 pm 18:15 Cloudy 56 13.4 42 5.6 59 59 SSW 9 15 29.8 1009 N/A 0 0
6:35 pm 18:35 Sunny 56 13.6 41 5 56 56 SSW 8 13 29.79 1009 N/A 0 0
6:55 pm 18:55 Sunny 56 13.4 42 5.3 58 58 SSW 10 17 29.79 1009 N/A 0 0
7:15 pm 19:15 Sunny 56 13.3 41 5.2 58 58 SSW 10 17 29.78 1008 N/A 0 0
7:35 pm 19:35 Sunny 55 12.9 42 5.6 61 61 WSW 5 7 29.79 1009 N/A 0 0
7:55 pm 19:55 Sunny 54 12.2 42 5.6 64 64 SSW 6 9 29.78 1009 N/A 0 0
8:15 pm 20:15 Sunny 53 11.4 42 5.4 67 67 S 6 9 29.79 1009 N/A 0 0
8:35 pm 20:35 Clear 51 10.8 41 5.2 69 69 Calm 29.8 1009 N/A 0 0
8:55 pm 20:55 Clear 48 9 42 5.8 81 81 Calm 29.8 1009 N/A 0 0
9:15 pm 21:15 undefined 45 7.4 43 6.1 92 92 Calm 29.81 1009 N/A 0 0
9:35 pm 21:35 undefined 47 8.1 43 6.1 87 87 Calm 29.8 1009 N/A 0 0
9:55 pm 21:55 undefined 45 7.3 43 6.1 92 92 Calm 29.81 1009 N/A 0 0
10:15 pm 22:15 undefined 43 6.1 42 5.3 95 95 Calm 29.8 1009 N/A 0 0
10:35 pm 22:35 undefined 44 6.5 42 5.7 95 95 N 3 6 29.79 1009 N/A 0 0
10:55 pm 22:55 undefined 42 5.4 40 4.7 95 95 Calm 29.8 1009 N/A 0 0
11:15 pm 23:15 undefined 42 5.6 42 5.3 98 98 Calm 29.81 1009 N/A 0 0
11:35 pm 23:35 undefined 41 5.1 40 4.5 96 96 N 7 11 29.81 1010 N/A 0 0
11:55 pm 23:55 undefined 41 5.2 40 4.3 94 94 NNE 3 6 29.81 1010 N/A 0 0

Powered by AerisWeather